World > North America > United States > New York   City of New York, NY
Hourly Weather in New York, New YorkNew York, New York Hourly Weather

New York, NY Hourly Weather

Hourly Weather New York, New YorkHourly Weather in New York, NY
Lat: 40.71N, Lon: 74.01W  ICAO: KNYC
Web Search
New York Weather Warning NWS WEATHER ALERT FOR THE NEW YORK, NY AREA - Issued: 331 AM EST Fri Jan 21 2022 New York Weather Warning  

Pass this page to a friend. Tell them to point their camera at the QR Code near the bottom of this page.

Feedback

New York Hourly Weather

36 Hour Weather Scroll   °F Click to change New York hourly weather to Imperial units.Click to change New York hourly weather to Metric units. °C
Currently, Clear, temperature is 21°F-6°C, dew point -0°F-18°C, humidity 39%. Wind direction is N at 0 mph0 km/h with visibility of 10.00 mi16 km. Barometric pressure is 30.5 in1033 mb.

Jan 21
3:00 PM

Jan 21
4:00 PM

Jan 21
5:00 PM

Jan 21
6:00 PM

Jan 21
7:00 PM

Jan 21
8:00 PM

Jan 21
9:00 PM

Jan 21
10:00 PM

Jan 21
11:00 PM

Jan 22
MIDNIGHT

Jan 22
1:00 AM

Jan 22
2:00 AM

Jan 22
3:00 AM

Jan 22
4:00 AM

Jan 22
5:00 AM

Jan 22
6:00 AM

Jan 22
7:00 AM

Jan 22
8:00 AM

Jan 22
9:00 AM

Jan 22
10:00 AM

Jan 22
11:00 AM

Jan 22
NOON

Jan 22
1:00 PM

Jan 22
2:00 PM

Jan 22
3:00 PM

Jan 22
4:00 PM

Jan 22
5:00 PM

Jan 22
6:00 PM

Jan 22
7:00 PM

Jan 22
8:00 PM

Jan 22
9:00 PM

Jan 22
10:00 PM

Jan 22
11:00 PM

Jan 23
MIDNIGHT

Jan 23
1:00 AM

Jan 23
2:00 AM
Clear Clear Clear Mostly Clear Mostly Clear Mostly Clear Partly Cloudy Partly Cloudy Partly Cloudy Clear Clear Clear Partly Cloudy Partly Cloudy Partly Cloudy Clear Clear Clear Clear Clear Clear Clear Clear Clear Clear Clear Clear Mostly Clear Mostly Clear Mostly Clear Partly Cloudy Partly Cloudy Partly Cloudy Clear Clear Clear
Clear Clear Clear Mostly Clear Mostly Clear Mostly Clear Partly Cloudy Partly Cloudy Partly Cloudy Clear Clear Clear Partly Cloudy Partly Cloudy Partly Cloudy Clear Clear Clear Clear Clear Clear Clear Clear Clear Clear Clear Clear Mostly Clear Mostly Clear Mostly Clear Partly Cloudy Partly Cloudy Partly Cloudy Clear Clear Clear
24°F-4°C 25°F-4°C 25°F-4°C 24°F-4°C 24°F-4°C 23°F-5°C 23°F-5°C 22°F-6°C 21°F-6°C 21°F-6°C 20°F-7°C 20°F-7°C 19°F-7°C 19°F-7°C 19°F-7°C 19°F-7°C 19°F-7°C 20°F-7°C 21°F-6°C 22°F-6°C 24°F-4°C 27°F-3°C 29°F-2°C 30°F-1°C 30°F-1°C 31°F-1°C 30°F-1°C 30°F-1°C 29°F-2°C 29°F-2°C 28°F-2°C 28°F-2°C 28°F-2°C 28°F-2°C 28°F-2°C 28°F-2°C
- - - - - - - - - - - - - - - - - - - - - - - - - - - - - - - - - - - -
0% 0% 0% 0% 0% 0% 0% 0% 0% 0% 0% 0% 0% 0% 0% 0% 0% 0% 0% 0% 0% 0% 0% 0% 0% 0% 0% 0% 0% 0% 0% 0% 0% 0% 0% 0%
-3°F-19°C -2°F-19°C -2°F-19°C -2°F-19°C °F-18°C °F-18°C 1°F-17°C 1°F-17°C 1°F-17°C 1°F-17°C 1°F-17°C 1°F-17°C 1°F-17°C 1°F-17°C 1°F-17°C 2°F-17°C 2°F-17°C 1°F-17°C 1°F-17°C °F-18°C -1°F-18°C -2°F-19°C -1°F-18°C -1°F-18°C °F-18°C 1°F-17°C 1°F-17°C 2°F-17°C 2°F-17°C 3°F-16°C 3°F-16°C 4°F-16°C 5°F-15°C 5°F-15°C 6°F-14°C 7°F-14°C
30% 30% 30% 31% 34% 36% 38% 39% 41% 41% 43% 43% 45% 45% 45% 47% 47% 43% 41% 37% 33% 28% 27% 26% 27% 27% 28% 29% 31% 32% 34% 35% 37% 37% 39% 40%
NNE NNE NNE NE NE NE NE NE NE NE NE NE NE NE NE NE NE NE NE NE SE SSW NNW NW W SSW SSW SSW SSW SSW SSW SSW SSW SSW SSW SSW
6 mph 6 mph 6 mph 6 mph 6 mph 6 mph 7 mph 7 mph 7 mph 7 mph 7 mph 7 mph 6 mph 6 mph 6 mph 5 mph 5 mph 5 mph 4 mph 4 mph 4 mph 4 mph 4 mph 4 mph 2 mph 2 mph 2 mph 3 mph 3 mph 3 mph 3 mph 3 mph 3 mph 5 mph 5 mph 5 mph
10 mi16 km 10 mi16 km 10 mi16 km 10 mi16 km 10 mi16 km 10 mi16 km 10 mi16 km 10 mi16 km 10 mi16 km 10 mi16 km 10 mi16 km 10 mi16 km 10 mi16 km 10 mi16 km 10 mi16 km 10 mi16 km 10 mi16 km 10 mi16 km 10 mi16 km 10 mi16 km 10 mi16 km 10 mi16 km 10 mi16 km 10 mi16 km 10 mi16 km 10 mi16 km 10 mi16 km 10 mi16 km 10 mi16 km 10 mi16 km 10 mi16 km 10 mi16 km 10 mi16 km 10 mi16 km 10 mi16 km 10 mi16 km
Hour (EST)
Weather
Clouds
Temperature
Precip. Type
POP
Dewpoint
Humidity
Wind Direction
Wind Speed
Visibility
POP = Probability of Precipitation. ** Indicates missing data/values from model statistics.

24 Hour Forecast

Today - Mostly sunny. Colder with highs in the mid 20s. North winds 10 to 15 mph.
Tonight - Partly cloudy. Lows around 13. North winds 10 to 15 mph. Wind chill values as low as 2 below.

48 Hour Forecast API Feed


Fri, Jan 21
3:00 pm

Fri, Jan 21
4:00 pm

Fri, Jan 21
5:00 pm

Fri, Jan 21
6:00 pm

Fri, Jan 21
7:00 pm

Fri, Jan 21
8:00 pm

Fri, Jan 21
9:00 pm

Fri, Jan 21
10:00 pm

Fri, Jan 21
11:00 pm

Sat, Jan 22
Midnight

Sat, Jan 22
1:00 am

Sat, Jan 22
2:00 am

Sat, Jan 22
3:00 am

Sat, Jan 22
4:00 am

Sat, Jan 22
5:00 am

Sat, Jan 22
6:00 am

Sat, Jan 22
7:00 am

Sat, Jan 22
8:00 am

Sat, Jan 22
9:00 am

Sat, Jan 22
10:00 am

Sat, Jan 22
11:00 am

Sat, Jan 22
Noon

Sat, Jan 22
1:00 pm

Sat, Jan 22
2:00 pm

Sat, Jan 22
3:00 pm

Sat, Jan 22
4:00 pm

Sat, Jan 22
5:00 pm

Sat, Jan 22
6:00 pm

Sat, Jan 22
7:00 pm

Sat, Jan 22
8:00 pm

Sat, Jan 22
9:00 pm

Sat, Jan 22
10:00 pm

Sat, Jan 22
11:00 pm

Sun, Jan 23
Midnight

Sun, Jan 23
1:00 am

Sun, Jan 23
2:00 am

Sun, Jan 23
3:00 am

Sun, Jan 23
4:00 am

Sun, Jan 23
5:00 am

Sun, Jan 23
6:00 am

Sun, Jan 23
7:00 am

Sun, Jan 23
8:00 am

Sun, Jan 23
9:00 am

Sun, Jan 23
10:00 am

Sun, Jan 23
11:00 am

Sun, Jan 23
Noon

Sun, Jan 23
1:00 pm

Sun, Jan 23
2:00 pm
Partly CloudySunnyClearClearOvercastCloudyOvercastOvercastClearClearClearClearClearClearClearClearClearSunnySunnySunnySunnySunnySunnySunnySunnySunnyPartly CloudyOvercastPartly CloudyPartly CloudyOvercastOvercastPartly CloudyClearPartly CloudyClearClearClearClearPartly CloudyOvercastOvercastOvercastOvercastOvercastPartly CloudyPartly CloudyOvercast
Partly cloudy Sunny Clear Clear Overcast Cloudy Overcast Overcast Clear Clear Clear Clear Clear Clear Clear Clear Clear Sunny Sunny Sunny Sunny Sunny Sunny Sunny Sunny Sunny Partly cloudy Overcast Partly cloudy Partly cloudy Overcast Overcast Partly cloudy Clear Partly cloudy Clear Clear Clear Clear Partly cloudy Overcast Overcast Overcast Overcast Overcast Partly cloudy Partly cloudy Overcast
24°F
-4°C
25°F
-4°C
25°F
-4°C
24°F
-4°C
23°F
-5°C
23°F
-5°C
22°F
-6°C
22°F
-6°C
22°F
-6°C
21°F
-6°C
21°F
-6°C
21°F
-6°C
20°F
-7°C
19°F
-7°C
18°F
-8°C
18°F
-8°C
18°F
-8°C
17°F
-8°C
18°F
-8°C
19°F
-7°C
23°F
-5°C
26°F
-3°C
29°F
-2°C
31°F
-1°C
32°F
-0°C
29°F
-2°C
28°F
-2°C
27°F
-3°C
28°F
-2°C
28°F
-3°C
28°F
-2°C
28°F
-2°C
29°F
-2°C
29°F
-2°C
29°F
-2°C
29°F
-2°C
28°F
-2°C
28°F
-2°C
28°F
-2°C
28°F
-3°C
27°F
-3°C
27°F
-3°C
28°F
-2°C
29°F
-2°C
30°F
-1°C
32°F
-0°C
33°F
1°C
33°F
1°C
0°F
-18°C
2°F
-17°C
3°F
-16°C
4°F
-16°C
4°F
-15°C
5°F
-15°C
5°F
-15°C
6°F
-15°C
6°F
-15°C
5°F
-15°C
6°F
-15°C
6°F
-15°C
5°F
-15°C
5°F
-15°C
4°F
-16°C
3°F
-16°C
2°F
-17°C
2°F
-17°C
2°F
-17°C
1°F
-17°C
3°F
-16°C
3°F
-16°C
4°F
-16°C
3°F
-16°C
2°F
-17°C
-1°F
-19°C
-2°F
-19°C
-3°F
-19°C
-2°F
-19°C
-1°F
-18°C
2°F
-17°C
5°F
-15°C
7°F
-14°C
8°F
-13°C
10°F
-13°C
11°F
-12°C
10°F
-12°C
9°F
-13°C
8°F
-13°C
9°F
-13°C
10°F
-12°C
12°F
-11°C
13°F
-11°C
13°F
-11°C
14°F
-10°C
14°F
-10°C
14°F
-10°C
14°F
-10°C
30.5 in
1033 mb
30.5 in
1033 mb
30.5 in
1033 mb
30.5 in
1033 mb
30.53 in
1034 mb
30.53 in
1034 mb
30.53 in
1034 mb
30.53 in
1034 mb
30.53 in
1034 mb
30.53 in
1034 mb
30.53 in
1034 mb
30.5 in
1033 mb
30.5 in
1033 mb
30.47 in
1032 mb
30.45 in
1031 mb
30.45 in
1031 mb
30.45 in
1031 mb
30.47 in
1032 mb
30.47 in
1032 mb
30.45 in
1031 mb
30.45 in
1031 mb
30.45 in
1031 mb
30.39 in
1029 mb
30.36 in
1028 mb
30.3 in
1026 mb
30.3 in
1026 mb
30.27 in
1025 mb
30.24 in
1024 mb
30.24 in
1024 mb
30.21 in
1023 mb
30.21 in
1023 mb
30.18 in
1022 mb
30.15 in
1021 mb
30.12 in
1020 mb
30.09 in
1019 mb
30.06 in
1018 mb
30.03 in
1017 mb
30 in
1016 mb
30 in
1016 mb
29.97 in
1015 mb
29.97 in
1015 mb
29.97 in
1015 mb
29.94 in
1014 mb
29.94 in
1014 mb
29.94 in
1014 mb
29.91 in
1013 mb
29.88 in
1012 mb
29.85 in
1011 mb
35%35%38%41%44%45%47%49%49%49%50%51%53%53%53%52%50%50%49%46%41%37%33%29%27%26%26%26%27%28%32%36%39%40%43%46%46%43%43%45%48%51%52%51%50%47%45%44%
NNENNENNENNENNENNENNENNENNENNENNENNENNENNENNENNENNENNENNENNENNENNENNNENNEWSWSWSWSSWSWSWSWSWSWSWWSWWSWWSWWSWWSWWSWWSWWSWWSWWWW
10 mph
16 km/h
9 mph
15 km/h
10 mph
15 km/h
10 mph
16 km/h
10 mph
16 km/h
9 mph
15 km/h
9 mph
15 km/h
9 mph
15 km/h
9 mph
15 km/h
10 mph
16 km/h
10 mph
17 km/h
11 mph
17 km/h
11 mph
17 km/h
10 mph
16 km/h
11 mph
18 km/h
10 mph
17 km/h
8 mph
13 km/h
9 mph
14 km/h
9 mph
14 km/h
7 mph
12 km/h
6 mph
10 km/h
5 mph
8 km/h
4 mph
7 km/h
3 mph
5 km/h
1 mph
2 km/h
1 mph
1 km/h
2 mph
3 km/h
3 mph
4 km/h
4 mph
6 km/h
5 mph
8 km/h
5 mph
9 km/h
7 mph
11 km/h
8 mph
12 km/h
8 mph
13 km/h
9 mph
15 km/h
10 mph
16 km/h
10 mph
17 km/h
11 mph
17 km/h
11 mph
17 km/h
10 mph
16 km/h
9 mph
15 km/h
9 mph
15 km/h
9 mph
15 km/h
11 mph
17 km/h
11 mph
18 km/h
12 mph
19 km/h
12 mph
19 km/h
11 mph
18 km/h
0%0%0%0%0%0%0%0%0%0%0%0%0%0%0%0%0%0%0%0%0%0%0%0%0%0%0%0%0%0%0%0%0%0%0%0%0%0%0%0%0%0%0%0%0%0%0%0%
6 mi
10 km
6 mi
10 km
6 mi
10 km
6 mi
10 km
6 mi
10 km
6 mi
10 km
6 mi
10 km
6 mi
10 km
6 mi
10 km
6 mi
10 km
6 mi
10 km
6 mi
10 km
6 mi
10 km
6 mi
10 km
6 mi
10 km
6 mi
10 km
6 mi
10 km
6 mi
10 km
6 mi
10 km
6 mi
10 km
6 mi
10 km
6 mi
10 km
6 mi
10 km
6 mi
10 km
6 mi
10 km
6 mi
10 km
6 mi
10 km
6 mi
10 km
6 mi
10 km
6 mi
10 km
6 mi
10 km
6 mi
10 km
6 mi
10 km
6 mi
10 km
6 mi
10 km
6 mi
10 km
6 mi
10 km
6 mi
10 km
6 mi
10 km
6 mi
10 km
6 mi
10 km
6 mi
10 km
6 mi
10 km
6 mi
10 km
6 mi
10 km
6 mi
10 km
6 mi
10 km
6 mi
10 km

Day/Time
Weather
Condition
Temperature
Dew Point
Pressure
Humidity
Wind Direction
Wind Speed
Prob Precip %
Visibility
Prob Precip % = Probability of Precipitation.